This is the latest recevied weather packets stored in our database for station/object N5JXS. If no packets are shown the sender has not sent any weather packets the latest 10 day(s).
| Time | Temp. | Humidity | Pressure | Rain* | Wind** | Luminosity | Snow |
|---|---|---|---|---|---|---|---|
| 1778009593 | 1.11° C | 97% | 1014.8 hPa | 1.27 mm | - | 78 W/m² | - |
| 1778009291 | 1.11° C | 97% | 1014.8 hPa | 1.78 mm | - | 81 W/m² | - |
| 1778008989 | 1.11° C | 97% | 1015 hPa | 1.78 mm | - | 99 W/m² | - |
| 1778008686 | 0.56° C | 97% | 1014.9 hPa | 0 mm | - | 81 W/m² | - |
| 1778008384 | 0.56° C | 97% | 1014.8 hPa | 1.27 mm | - | 81 W/m² | - |
| 1778008080 | 1.11° C | 97% | 1015 hPa | 1.27 mm | - | 65 W/m² | - |
| 1778007776 | 0.56° C | 97% | 1015 hPa | 0 mm | - | 76 W/m² | - |
| 1778007472 | 0.56° C | 97% | 1014.8 hPa | 0 mm | - | 56 W/m² | - |
| 1778007169 | 0.56° C | 97% | 1014.9 hPa | 0 mm | - | 57 W/m² | - |
| 1778006865 | 0.56° C | 97% | 1015 hPa | 0 mm | - | 63 W/m² | - |
| 1778006562 | 0.56° C | 97% | 1015 hPa | 0 mm | - | 68 W/m² | - |
| 1778006259 | 0.56° C | 97% | 1015 hPa | 0 mm | - | 77 W/m² | - |
| 1778005956 | 0.56° C | 97% | 1015.3 hPa | 0 mm | - | 78 W/m² | - |
| 1778005653 | 0.56° C | 97% | 1015.3 hPa | 1.78 mm | - | 71 W/m² | - |
| 1778005350 | 0.56° C | 97% | 1015.3 hPa | 1.78 mm | - | 65 W/m² | - |
| 1778005046 | 0.56° C | 97% | 1015.3 hPa | 0 mm | - | 72 W/m² | - |
| 1778004743 | 0.56° C | 97% | 1015.5 hPa | 0 mm | - | 71 W/m² | - |
| 1778004440 | 0.56° C | 97% | 1015.4 hPa | 0 mm | - | 74 W/m² | - |
| 1778004137 | 0.56° C | 97% | 1015.6 hPa | 0 mm | - | 75 W/m² | - |
| 1778003833 | 0.56° C | 97% | 1015.6 hPa | 1.27 mm | - | 65 W/m² | - |
| 1778003529 | 0.56° C | 97% | 1015.5 hPa | 1.27 mm | - | 69 W/m² | - |
| 1778003226 | 0.56° C | 97% | 1015.5 hPa | 0 mm | - | 75 W/m² | - |
| 1778002923 | 0.56° C | 97% | 1015.6 hPa | 0 mm | - | 81 W/m² | - |
| 1778002619 | 0.56° C | 97% | 1015.8 hPa | 1.78 mm | - | 64 W/m² | - |
| 1778002316 | 0.56° C | 97% | 1015.5 hPa | 1.78 mm | - | 61 W/m² | - |
* Rain latest hour (hover to see other rain measurements)
** Current wind speed in m/s (hover to see current wind gust speed)